Theta_e
282 282 282 282 282 282 283 283 284 284 284 284 285 284 284 284 284 285 285 285 286 287 288 289 289 290 290 291 291 292 292 292 293 294 294 295 295 296
281 281 282 282 282 282 282 282 283 283 283 284 284 283 283 283 284 284 284 285 285 286 287 288 289 289 289 290 290 291 291 292 292 293 294 294 295 295
281 281 281 281 281 282 282 282 282 282 282 283 283 283 283 283 283 283 283 284 284 285 286 287 288 289 289 289 290 290 291 291 292 292 293 293 293 293
281 281 281 281 281 281 281 281 282 282 282 282 282 282 282 282 282 282 283 283 284 285 286 287 288 289 289 289 289 289 290 291 291 291 291 292 292 292
280 280 280 280 280 280 281 281 281 282 282 282 282 282 282 282 281 282 283 283 284 284 285 286 287 287 288 288 289 289 289 290 290 290 291 291 291 292
280 280 280 280 280 280 280 280 281 281 281 281 282 282 282 282 282 282 283 283 284 284 285 286 286 286 287 286 287 287 288 288 289 289 289 290 290 291
279 279 279 280 280 281 280 281 281 281 281 281 281 281 281 282 282 282 283 283 284 284 284 285 285 285 285 284 284 284 286 288 288 289 289 290 290 290
279 279 280 280 281 282 283 284 283 282 282 281 281 281 281 282 282 283 284 283 284 284 285 285 285 285 284 284 283 285 286 287 287 288 288 290 290 290
279 280 280 280 281 281 281 282 283 283 284 284 282 282 282 282 282 283 282 282 282 282 283 283 283 283 283 283 284 285 286 287 288 288 288 289 289 289
279 279 280 280 280 281 281 281 281 280 281 281 281 281 281 281 281 281 282 282 282 282 283 283 283 283 284 284 285 285 285 285 285 285 285 286 286 287
279 279 279 279 280 281 281 281 281 281 281 282 282 282 283 283 284 284 284 283 283 284 283 284 284 284 284 283 283 283 284 284 284 285 285 286 287 287
278 278 279 280 280 281 281 281 281 281 281 281 281 282 282 282 283 283 283 283 282 281 282 283 283 283 282 282 282 282 282 282 282 281 282 284 285 285
279 279 278 279 280 281 282 282 282 282 282 282 282 283 282 282 281 280 280 281 281 281 281 282 282 282 282 282 282 281 281 281 280 280 281 282 282 283
279 279 278 279 280 281 282 282 283 283 283 283 283 282 281 280 280 279 279 280 280 279 279 279 279 280 280 279 280 280 280 279 279 279 280 280 281 282
280 280 280 280 280 281 281 282 283 283 282 282 282 281 280 279 278 278 278 278 278 278 278 278 278 278 278 278 278 279 279 279 279 279 279 280 280 281
278 278 279 280 281 281 281 281 281 281 281 281 280 280 279 278 278 278 277 277 277 277 277 277 277 278 279 278 278 279 279 279 279 279 280 280 280 280
278 278 278 279 279 279 279 280 280 281 281 280 280 279 279 278 278 278 277 277 277 277 277 277 277 277 278 278 278 279 279 279 279 280 280 280 280 280
280 281 280 280 280 280 280 280 281 281 280 280 279 279 278 278 278 277 277 277 277 277 277 277 277 277 277 277 278 278 279 279 279 280 280 280 280 280
279 279 279 279 280 280 281 281 281 280 280 279 278 278 277 277 277 277 277 277 277 277 276 276 276 276 276 276 277 277 278 278 279 280 280 280 280 280
277 277 278 278 280 279 280 279 279 279 278 278 277 277 277 276 276 276 276 276 276 276 276 276 276 276 276 276 276 277 277 278 278 278 278 279 280 280
276 277 277 278 278 278 278 277 277 277 276 277 277 276 276 276 276 276 276 276 277 277 277 276 276 277 277 277 277 277 277 278 279 279 279 279 279 280
274 276 276 276 276 276 276 276 275 275 275 275 276 276 276 275 276 276 276 275 275 275 276 276 276 275 275 275 276 276 276 277 277 278 278 279 279 280
273 273 273 274 274 274 275 275 275 274 275 275 275 275 275 275 275 275 275 275 275 275 275 275 275 275 275 275 276 277 277 277 277 277 277 278 279 279
Wind_Speed
7 7 6 5 4 4 4 3 3 2 0 3 4 6 4 2 4 9 11 12 11 10 11 9 8 8 7 8 8 8 9 10 10 10 10 9 9 8
5 4 5 4 3 2 2 3 3 3 1 1 3 8 7 10 10 11 10 10 11 12 12 12 12 12 11 11 10 10 10 11 11 12 12 11 11 10
3 2 4 3 3 2 2 3 4 5 6 7 11 12 11 12 14 13 12 12 12 11 12 12 13 13 13 14 15 14 13 13 13 13 13 13 12 12
3 3 3 3 4 4 6 6 7 7 9 12 15 15 14 14 17 18 14 12 12 12 13 13 14 14 14 14 15 16 16 16 15 15 14 14 14 13
5 6 6 6 6 5 6 7 8 9 11 13 15 14 17 17 17 14 13 12 13 14 13 12 10 11 13 14 15 17 17 18 18 18 17 16 16 16
7 8 8 9 9 8 8 9 9 10 11 13 15 16 17 18 16 17 17 16 16 13 12 13 14 14 12 14 15 16 16 16 16 17 17 17 17 17
10 11 10 11 10 10 11 11 11 12 14 15 16 17 17 17 15 17 17 20 21 21 20 21 18 15 17 16 20 21 16 16 17 18 18 18 18 18
13 14 13 13 14 14 16 16 17 17 19 21 19 17 23 22 20 14 16 15 8 13 12 15 14 18 23 28 27 20 19 21 23 22 23 22 21 21
16 16 16 16 14 16 15 16 16 16 17 20 25 21 19 22 18 20 22 21 20 23 21 22 25 28 29 27 23 20 19 18 19 20 21 21 21 22
18 18 18 19 18 18 18 19 20 20 19 19 20 20 21 21 22 25 26 26 25 25 23 18 26 26 28 26 20 19 21 22 25 27 28 29 30 29
19 20 19 20 20 18 20 21 22 21 21 20 20 20 20 22 23 23 19 18 11 12 15 19 19 22 24 26 26 26 22 24 22 19 23 24 21 21
20 20 18 20 20 19 21 24 24 25 24 24 24 22 21 21 21 21 24 23 19 15 19 21 22 21 14 20 23 25 20 18 25 30 30 26 24 25
19 18 19 18 20 20 20 21 23 23 24 21 22 22 21 19 19 21 22 23 22 20 22 21 22 23 23 20 19 24 27 29 32 33 31 29 29 28
25 24 22 18 18 19 20 20 19 21 13 12 14 17 18 19 22 19 20 21 21 21 22 20 20 19 19 19 19 22 27 31 32 33 33 33 29 27
21 23 21 20 19 20 22 23 20 18 16 15 16 18 21 21 19 21 23 24 26 28 28 27 26 28 27 25 24 24 23 25 27 31 33 31 30 27
18 18 18 17 19 20 20 21 21 19 16 17 20 21 19 21 23 21 22 22 24 26 24 22 22 22 26 27 25 25 25 21 27 28 30 31 32 31
21 23 24 23 22 24 24 23 22 19 18 20 20 21 22 22 22 21 21 23 23 22 24 25 24 24 25 27 26 25 25 28 28 33 28 28 29 30
22 19 20 25 24 24 22 23 22 21 20 19 20 21 23 22 21 22 22 22 22 22 22 25 25 24 24 25 24 27 26 26 28 28 29 27 28 27
20 18 19 20 21 22 24 22 17 19 20 20 21 22 22 22 21 21 21 21 22 22 22 22 22 21 11 10 25 22 27 26 25 24 26 28 30 31
21 19 19 18 16 11 12 14 17 18 19 21 21 22 23 21 20 21 21 21 21 22 23 24 22 22 20 16 20 32 27 27 28 28 28 30 34 34
17 15 12 11 11 12 14 16 17 19 20 22 24 25 26 24 24 24 23 24 24 21 19 22 23 21 25 24 18 25 32 28 28 30 29 26 28 29
16 14 14 14 15 16 18 18 19 20 22 24 26 27 26 24 25 24 23 23 22 23 25 27 28 25 24 22 24 26 31 36 31 28 30 34 32 16
19 20 21 20 20 20 20 22 23 24 25 26 25 25 25 25 24 25 25 25 25 24 25 26 26 24 25 26 28 27 29 32 33 32 32 32 33 39
Wind_Direction
120 118 116 115 114 126 137 140 143 168 159 112 138 91 56 2 322 329 328 328 325 319 318 311 302 297 297 298 296 294 296 299 299 300 301 302 301 302
134 138 129 128 130 137 156 170 187 196 225 201 151 342 332 312 305 301 293 305 305 307 306 304 300 298 297 298 297 292 288 287 290 294 297 297 296 295
161 159 168 185 193 208 220 237 235 233 238 272 285 301 307 309 307 302 288 285 294 299 297 296 292 290 291 294 295 294 291 287 286 286 287 288 292 293
204 219 221 218 218 229 240 244 254 256 265 277 291 299 300 303 307 306 300 287 288 292 288 295 288 288 291 294 295 295 293 290 289 288 285 281 280 283
257 264 262 256 252 249 254 262 264 266 266 270 282 294 297 305 311 307 310 298 299 293 290 291 288 290 295 296 297 293 291 288 287 286 283 281 280 280
266 263 269 269 268 264 259 258 265 273 273 273 276 284 292 302 305 303 310 312 311 306 292 287 290 291 291 298 302 293 291 290 289 287 285 282 280 279
263 267 266 270 270 265 262 263 258 261 271 275 278 282 282 287 287 302 294 301 297 294 293 290 290 285 291 293 303 295 288 289 287 286 284 280 280 279
259 262 260 260 258 260 260 258 256 249 256 259 258 255 268 274 288 285 290 300 305 312 295 294 288 288 292 295 300 294 287 283 285 285 283 280 275 275
259 260 263 264 263 263 264 262 265 267 267 268 254 255 263 275 285 285 282 279 272 284 289 284 292 289 291 291 296 292 290 289 287 289 290 289 280 274
262 259 261 263 262 263 262 263 264 266 268 268 272 279 282 283 277 276 279 280 279 279 280 275 286 282 288 282 287 289 288 287 288 289 287 286 282 281
264 264 264 264 265 261 259 261 266 266 264 262 266 272 271 270 274 278 269 264 267 269 279 266 275 282 282 286 286 282 278 287 289 301 295 282 285 282
270 269 261 260 263 258 255 255 258 263 268 271 274 272 270 272 275 276 281 281 277 282 277 262 271 271 277 280 272 273 274 274 292 292 287 281 281 288
261 262 265 265 262 260 260 259 258 266 268 264 269 273 274 272 278 283 282 279 271 263 277 281 277 273 266 270 271 272 277 285 292 291 283 279 278 278
261 264 271 266 263 261 263 267 266 269 266 265 254 260 265 276 292 289 284 280 280 281 286 283 278 278 279 281 278 281 281 283 283 284 283 285 282 277
262 265 266 265 262 258 259 265 270 273 277 269 260 264 273 288 289 287 285 282 281 281 282 284 281 282 274 269 276 279 279 277 276 276 278 278 279 283
277 275 277 273 267 267 268 268 267 269 266 268 272 278 285 287 290 291 290 293 292 293 292 289 284 282 280 275 269 270 268 261 277 276 276 277 278 278
266 269 271 271 271 268 267 269 273 257 257 257 268 276 280 283 284 286 284 285 278 280 287 291 289 285 282 282 274 272 268 267 265 275 271 270 272 271
276 257 248 263 260 260 254 264 264 256 254 262 270 274 277 278 277 279 276 271 269 271 274 280 287 289 288 282 268 269 267 267 270 269 268 264 271 273
277 274 268 272 270 261 255 252 239 250 261 266 273 274 274 273 273 273 271 269 269 270 271 273 274 272 275 274 281 271 267 268 270 267 266 265 268 270
283 286 279 274 260 253 247 252 255 262 265 264 272 272 273 267 268 268 267 265 265 269 270 268 260 257 253 262 272 280 277 266 266 266 267 267 268 274
296 283 274 264 260 266 266 267 267 269 270 270 269 268 269 264 265 267 266 270 272 270 268 267 267 274 276 277 266 272 277 272 265 263 268 269 271 275
306 287 275 284 282 276 274 275 276 276 274 273 271 270 267 263 264 265 263 263 263 262 264 270 277 276 271 261 264 269 276 283 279 270 264 260 261 264
287 290 289 286 282 279 277 277 279 280 280 279 274 268 266 263 265 264 263 263 264 265 265 269 273 270 262 260 263 267 268 272 279 283 278 269 262 262